Weather History for Jordan, MT

Change the Weather History Date:

Tuesday, October 23, 2012

  Actual Average Record
Temperature  
Mean Temperature 35 °F 41 °F  
Max Temperature 43 °F 56 °F 83 °F (1948)
Min Temperature 27 °F 27 °F 11 °F (1919)
Degree Days  
Heating Degree Days 30 24  
Month to date heating degree days 406 442  
Since 1 July heating degree days 584 768  
Cooling Degree Days 0 0  
Month to date cooling degree days 0 0  
Year to date cooling degree days 728 420  
Moisture  
Dew Point 30 °F    
Average Humidity 75    
Maximum Humidity 100    
Minimum Humidity 49    
Precipitation  
Precipitation 0.01 in 0.03 in 0.32 in (1919)
Month to date precipitation 1.18 0.69  
Year to date precipitation 6.93 11.82  
Snow  
Snow 0.00 in - - ()
Month to date snowfall 0.0  
Since 1 July snowfall 0.0  
Since 1 September snowfall 0.0  
Snow Depth 0.00 in    
Sea Level Pressure  
Sea Level Pressure 29.83 in    
Wind  
Wind Speed 11 mph (WNW)    
Max Wind Speed 24 mph    
Max Gust Speed 30 mph    
T = Trace of Precipitation, MM = Missing Value Source: NWS Daily Summary

Daily Weather History Graph

Daily Weather History Graph

Search for Another Location

Airport:

Trip Planner

Search our weather history database for the weather conditions in past years. The results will help you decide how hot, cold, wet, or windy it might be!

Date:

Astronomy

Oct. 23, 2012 Rise Set
Actual Time 7:38 AM MDT 6:04 PM MDT
Civil Twilight 7:07 AM MDT 6:36 PM MDT
Nautical Twilight 6:31 AM MDT 7:11 PM MDT
Astronomical Twilight 5:56 AM MDT 7:47 PM MDT
Moon 3:10 PM MDT (10/23) 1:10 AM MDT (10/23)
Length of Visible Light 11h 28m
Length of Day
10h 26m
Waxing Gibbous, 67% of the Moon is Illuminated
Oct 23
Waxing Gibbous
Oct 29
Full
Nov 6
Last Quarter
Nov 13
New
Nov 20
First Quarter

Hourly Weather History & Observations

Time (MDT) Temp. Windchill Dew Point Humidity Pressure Visibility Wind Dir Wind Speed Gust Speed Precip Events Conditions
12:48 AM 39.0 °F 34.8 °F 37.9 °F 96% 29.64 in - ENE 5.8 mph - N/A   Unknown
1:48 AM 39.9 °F - 39.0 °F 97% 29.65 in - Calm Calm - N/A   Unknown
2:48 AM 39.9 °F - 39.0 °F 97% 29.64 in - Calm Calm - N/A   Unknown
3:48 AM 39.9 °F - 39.0 °F 97% 29.64 in - Calm Calm - N/A   Unknown
4:48 AM 39.9 °F 37.8 °F 39.0 °F 97% 29.67 in - West 3.5 mph - N/A   Unknown
5:48 AM 39.9 °F 35.8 °F 39.0 °F 97% 29.70 in - WNW 5.8 mph - N/A   Unknown
6:48 AM 39.9 °F 34.5 °F 39.0 °F 97% 29.71 in - WNW 8.1 mph - N/A   Unknown
7:48 AM 37.0 °F 28.9 °F 34.0 °F 89% 29.75 in - WNW 12.7 mph - N/A   Unknown
8:48 AM 35.1 °F 26.9 °F 30.9 °F 85% 29.81 in - WNW 11.5 mph - N/A   Unknown
9:48 AM 35.1 °F 24.8 °F 28.9 °F 78% 29.81 in - West 17.3 mph - N/A   Unknown
10:48 AM 36.0 °F 26.0 °F 28.0 °F 73% 29.83 in - WNW 17.3 mph 21.9 mph N/A   Unknown
11:48 AM 37.0 °F 26.7 °F 27.0 °F 67% 29.84 in - WNW 19.6 mph - N/A   Unknown
12:48 PM 41.0 °F 31.4 °F 27.0 °F 57% 29.84 in - West 21.9 mph 29.9 mph N/A   Unknown
1:48 PM 41.0 °F 31.9 °F 25.0 °F 53% 29.85 in - WNW 19.6 mph - N/A   Unknown
2:48 PM 41.0 °F 32.5 °F 25.0 °F 53% 29.86 in - West 17.3 mph - N/A   Unknown
3:48 PM 42.1 °F 34.5 °F 25.0 °F 51% 29.88 in - West 15.0 mph - N/A   Unknown
4:48 PM 41.0 °F 32.8 °F 24.1 °F 51% 29.90 in - West 16.1 mph - N/A   Unknown
5:48 PM 37.9 °F 30.9 °F 24.1 °F 57% 29.94 in - WNW 10.4 mph - N/A   Unknown
6:48 PM 32.0 °F 26.4 °F 24.1 °F 73% 29.95 in - West 5.8 mph - N/A   Unknown
7:48 PM 28.9 °F 22.8 °F 23.0 °F 78% 29.97 in - West 5.8 mph - N/A   Unknown
8:48 PM 28.9 °F 21.1 °F 24.1 °F 82% 30.00 in - NW 8.1 mph - N/A   Unknown
9:48 PM 30.9 °F 20.7 °F 25.0 °F 79% 29.99 in - NW 13.8 mph 20.7 mph N/A   Unknown
10:48 PM 30.0 °F 20.5 °F 24.1 °F 79% 30.02 in - NW 11.5 mph - N/A   Unknown
11:48 PM 30.0 °F 21.1 °F 25.0 °F 82% 30.04 in - West 10.4 mph - N/A   Unknown